www.pogodaiklimat.ru

Погода и климат >> Архив погоды >> Россия >> Приморский край >> Лазо


ПОГОДА в Лазо

  • Прогноз погоды в Лазо
  • Монитор погоды в Лазо

АРХИВ ПОГОДЫ в Лазо

Время (UTC), дата Ветер
(напр.,м/с)
 
Видим.   Явления Облачность Т
(С)
Тd
(С)
f
(%)
Тe
(С)
Тes
(С)
Комфортность P
(гПа)
Po
(гПа)
Тmin
(С)
Tmax
(С)
R
(мм)
R24
(мм)
S
(см)
03 17.03 Ю 2 50 км ясно +5.5 -12.5 26 +4 +16 опасность
простуды
1018.0 988.0
06 17.03 З 2 50 км 2 балла +6.9 -12.3 24 +6 +11 1015.1 985.3
09 17.03 З 1 50 км 3/3 600 м
[Cu hum]
+5.2 -13.7 24 +5 +5 1016.7 986.7 +7.7
12 17.03 С 1
{8}
50 км ясно -1.9 -9.5 56 -3 -3 1018.8 988.0
15 17.03 штиль 0 50 км ясно -4.7 -9.5 69 -5 -5 1019.2 988.0
18 17.03 штиль 0 50 км ясно -7.0 -9.5 82 -8 -8 1019.4 988.0
21 17.03 штиль 0 50 км ясно -8.9 -11.2 83 -9 -9 1017.7 986.0 -9.1 1
00 18.03 СЗ 1 50 км ясно -0.9 -7.8 59 -2 +4 1015.6 984.9 -9.1
03 18.03 Ю 2 50 км 7 баллов +9.7 -0.8 48 +9 +12 1010.6 981.3
06 18.03 Ю 4
{12}
50 км 7 баллов +10.7 -3.0 38 +9 +10 1007.8 978.7
09 18.03 ЮЗ 3 50 км ясно +6.7 -5.8 40 +4 +4 1006.6 976.9 +11.4
12 18.03 С 1
{12}
50 км ясно +0.9 -4.5 67 -1 -1 1010.2 980.0
15 18.03 штиль 0 50 км ясно -2.6 -5.2 82 -4 -4 1010.6 980.0
18 18.03 С 1 50 км ясно -3.9 -5.4 89 -6 -6 1010.8 980.0
21 18.03 штиль 0 50 км 6/0
[Cs]
-5.3 -6.4 92 -6 -6 1011.1 980.0 -5.3
00 19.03 штиль 0
{3}
50 км 10/0
[Cs]
+0.3 -3.2 77 -1 +6 1012.3 981.8 -5.4
03 19.03 Ю 1 50 км ясно +14.0 -5.7 25 +15 +29 опасность
простуды
1010.2 981.3
06 19.03 Ю 1 50 км 2 балла +16.6 -7.8 18 +18 +23 1008.6 980.0
09 19.03 З 2 50 км 8/8 900 м
[Cb cap]
+13.5 -6.1 25 +13 +13 1010.2 981.3 +17.4
12 19.03 С 1
{6}
50 км 6/0
[Cs]
+3.9 -4.6 54 +3 +3 1012.1 982.0
15 19.03 В 1 50 км 7 баллов -0.4 -4.6 73 -2 -2 1014.5 984.0
18 19.03 СВ 1 50 км 10 баллов -2.0 -4.8 81 -4 -4 1013.4 982.7
21 19.03 С 1 50 км 10/0
[Cs]
-2.1 -4.8 82 -4 -4 1012.4 981.6 -2.8
00 20.03 С 1
{3}
50 км 10/0
[Cs]
+3.4 -2.7 64 +2 +8 1010.5 980.4
03 20.03 Ю 2 50 км 10 баллов +11.9 -2.3 37 +11 +11 1007.7 978.7
06 20.03 З 2 50 км 10 баллов +18.8 -0.1 28 +19 +19 1005.6 977.3
09 20.03 Ю 2 50 км 10/0
[As op]
+13.2 -0.8 38 +13 +13 1007.6 978.7 +19.0
12 20.03 З 1
{8}
50 км 10/0
[As trans Cs]
+8.0 -0.2 56 +8 +8 1008.1 978.6
15 20.03 СВ 3
{11}
10 км в посл. час ливневой снег 10/10 700 м
[Cb cap]
+1.8 -0.3 86 -3 -3 1010.3 980.0
18 20.03 В 2 20 км {ливн. осадки} 10/5 720 м
[Cb cap As op]
+0.4 -1.3 88 -3 -3 1010.1 979.7
21 20.03 СВ 1 10 км слаб. ливневой снег 10/10 600 м
[Cb cap]
-0.9 -1.5 96 -3 -3 1008.6 978.1 -0.9 1
00 21.03 Ю 1
{11}
10 км слаб. ливневой снег 10/10 600 м
[Cb cap]
-0.9 -2.4 90 -3 -3 1006.4 976.0 -1.3
03 21.03 СЗ 1 4000 м ливневой снег 10 баллов -0.4 -1.8 90 -3 -3 1003.5 973.3
06 21.03 С 1 10 км слаб. ливневой снег 10 баллов +0.5 -1.3 88 -1 -1 999.2 969.3
09 21.03 СВ 1 10 км слаб. ливневой снег 10/10 600 м
[Cb cap]
-0.2 -1.0 94 -2 -2 999.3 969.3 +0.7 7
12 21.03 СЗ 2
{6}
10 км слаб. ливневой снег 10/10 600 м
[Cb cap]
-0.3 -3.2 81 -4 -4 1001.3 971.0
15 21.03 СЗ 2
{11}
10 км слаб. ливневой снег 10/10 600 м
[Cb cap]
-4.0 -9.6 65 -8 -8 1006.0 975.2
18 21.03 СЗ 1
{11}
20 км {ливн. осадки} 9/9 700 м
[Cb cap]
-4.9 -10.7 64 -7 -7 1008.3 977.3
21 21.03 С 5
{10}
50 км 4/4 600 м
[Cu hum]
-5.3 -13.1 54 -12 -12 1010.3 979.2 -5.5 0.6 9
00 22.03 С 6-12
{13}
50 км 8/8 870 м
[Cb cap]
-4.0 -12.3 52 -11 -10 1012.7 981.7
03 22.03 С 4
{12}
50 км 10 баллов -1.5 -8.0 61 -7 -7 1013.3 982.7
06 22.03 С 4 10 км слаб. ливневой снег 9 баллов -1.8 -10.1 53 -7 -7 1013.4 982.7
09 22.03 СЗ 3 50 км 4 балла -3.5 -12.9 48 -8 -8 1016.2 985.3 -0.3 0.0
12 22.03 СЗ 2
{12}
50 км {ливн. осадки} ясно -6.1 -14.6 51 -10 -10 1019.3 988.0
15 22.03 З 1 50 км ясно -8.4 -13.4 67 -11 -11 1019.6 988.0
18 22.03 штиль 0 50 км 10 баллов -8.9 -13.9 67 -9 -9 1018.3 986.7
21 22.03 С 1 50 км ясно -12.6 -16.1 75 -15 -15 1017.9 985.7 -13.0 8
00 23.03 СЗ 1
{5}
50 км ясно -5.4 -14.7 48 -7 0 1016.2 984.9
03 23.03 ЮЗ 2 50 км 9 баллов +2.4 -13.0 31 0 +2 1012.9 982.7
06 23.03 С 3
{11}
10 км слаб. ливневой снег 10/10 600 м
[Cb cap]
-2.3 -6.1 75 -7 -7 1010.6 980.0
09 23.03 С 2
{11}
10 км в посл. час ливневой снег 9/9 600 м
[Cb cap]
-3.3 -6.6 78 -7 -7 1012.1 981.3 +2.6 0.2
12 23.03 СЗ 3
{11}
50 км {ливн. осадки} ясно -5.5 -12.5 58 -11 -11 1013.7 982.5
15 23.03 СЗ 3 50 км ясно -7.1 -13.9 58 -12 -12 1015.3 984.0
18 23.03 СЗ 1 50 км ясно -7.1 -15.3 52 -9 -9 1014.0 982.7
21 23.03 штиль 0 50 км ясно -10.8 -15.2 70 -11 -11 1014.9 983.0 -10.8 7
00 24.03 штиль 0 50 км 4/0
[Ci fib]
-3.0 -14.7 40 -3 +5 1013.9 983.0 -12.4

 

Местоположение метеостанции Лазо (Приморский край, Россия): широта 43.40 долгота 133.80 высота над уровнем моря 245 м.

В архиве по умолчанию представлена погода в Лазо за последнюю неделю. Архивные данные за месяц целиком и за предыдущие месяцы, начиная с января 2011 года, Вы можете получить, выбрав интересующий диапазон дат из раскрывающегося списка и нажав кнопку "Ввод!".


*Определитесь, кто Вы:
робот инопланетянин человек

Внимание! Время в таблицах - всемирное. Для получения местного времени необходимо прибавить поправку, которая равна 10 ч.

Смотрите также архив погоды в соседних городах и на ближайших метеорологических станциях:

Погода в Лучегорске (Приморский край, Россия) (47 км)
Погода в Преображении (Приморский край, Россия) (56 км)
Погода в Партизанске (Приморский край, Россия) (71 км)
Погода в Чугуевке (Приморский край, Россия) (83 км)
Погода в Анучино (Приморский край, Россия) (90 км)
Погода в Находке (Приморский край, Россия) (105 км)
Погода в Многоудобном (Приморский край, Россия) (108 км)
Погода в Ольге (Приморский край, Россия) (127 км)
Погода в Кавалерово (Приморский край, Россия) (135 км)
Погода в Дальнегорске (Приморский край, Россия) (144 км)

Пояснения к столбцам:

Ветер - указаны скорость ветра в м/с - средняя за 10 мин, порывы в срок и между сроками (в фигурных скобках) и направление, откуда дует ветер: С - северный, СВ - северо-восточный, В - восточный, ЮВ - юго-восточный, Ю - южный, ЮЗ - юго-западный, З - западный, СЗ - северо-западный.
Видимость - горизонтальная дальность видимости в метрах или километрах. При видимости от 1 до 10 км при отсутствии осадков обычно наблюдается дымка, при ухудшении видимости до 1 км и менее - туман. В сухую погоду видимость может ухудшаться дымом, пылью или мглою.
Явления - указаны атмосферные явления, наблюдавшиеся в срок или в последний час перед сроком; фигурными скобками обозначены явления, наблюдавшиеся между сроками (за 1-3 часа до срока); квадратными скобками обозначены град или гололедные отложения с указанием их диаметра в мм.
Облачность - указаны через наклонную черту общая и нижняя облачность в баллах и высота нижней границы облаков в метрах; квадратными скобками обозначены формы облаков: Ci - перистые, Cs - перисто-слоистые, Cc - перисто-кучевые, Ac - высококучевые, As - высокослоистые, Sc - слоисто-кучевые, Ns - слоисто-дождевые, Cu - кучевые, Cb - кучево-дождевые. Подробнее классификацию облаков см. в Атласе облаков (PDF).
T - Температура воздуха - температура, измеренная на высоте 2 м над землей.
Td - Температура точки росы - температура, при понижении до которой содержащийся в воздухе водяной пар достигнет насыщения.
f - Относительная влажность воздуха - влажноcть воздуха, измеренная на высоте 2 м над землей.
Te - Эффективная температура - температура, которую ощущает одетый по сезону человек в тени. Характеристика душности погоды. При расчете учитывается влияние влажности воздуха и скорости ветра на теплоощущения человека.
Tes - Эффективная температура на солнце - температура, которую ощущает человек, с поправкой на солнечный нагрев. Характеристика знойности погоды. Зависит от высоты солнца над горизонтом, облачности и скорости ветра. Ночью, в пасмурную погоду, а также при ветре 12 м/с и более поправка равна нулю.
P - Атмосферное давление - приведенное к уровню моря атмосферное давление.
Po - Атмосферное давление - измеренное на уровне метеостанции атмосферное давление.
Tmin - Минимальная температура - минимум температуры воздуха на высоте 2 м над землей.
Tmax - Максимальная температура - максимум температуры воздуха на высоте 2 м над землей.
R - Количество осадков - Количество выпавших осадков за период времени, мм. При наведении курсора мыши на число - период времени, за который выпало указанное количество осадков.
R24 - Количество осадков - Количество выпавших осадков за 24 часа, мм.
S - Снежный покров - Высота снежного покрова, см. При наведении курсора мыши на число - состояние снежного покрова и степень покрытия местности в баллах.